Terminal Aerodrome Forecast
Issued by NWS Blacksburg, VA

Home | Current Version | Previous Version | Text Only | Print | Product List | Glossary On
Versions: 1 2 3 4 5 6 7 8 9 10 11 12 13 14 15 16 17 18 19 20 21 22 23 24 25 26 27 28 29 30 31 32 33 34 35 36 37 38 39 40 41 42 43 44
000
FTUS41 KRNK 301120
TAFDAN
TAF
KDAN 301120Z 3012/3112 22003KT P6SM SCT250
     FM301500 24005KT P6SM SCT050 BKN100
     FM301800 26006KT P6SM VCTS BKN050CB
     FM302300 29007KT P6SM BKN250=

USA.gov is the U.S. government's official web portal to all federal, state and local government web resources and services.